Location: Olympia
(47.0371°N, 122.8993°W)
Time: 15:45:46
(UTC-08:00)

METEOR M2 - Visible Passes

Search period start: 15 February 2026 00:00
Search period end: 25 February 2026 00:00
Orbit: 816 x 825 km, 98.5° (Epoch: 15 February)

Date Brightness Start Highest point End Pass type
(mag) Time Alt. Az. Time Alt. Az. Time Alt. Az.
15 Feb ? 03:08:10 10° ENE 03:10:37 13° E 03:12:24 11° ESE visible
15 Feb ? 04:46:06 10° NNE 04:51:29 88° E 04:53:46 36° SSW visible
15 Feb ? 06:27:40 10° NNW 06:30:54 16° NW 06:34:08 10° W visible
16 Feb ? 04:25:30 10° NNE 04:30:50 60° E 04:33:04 34° SSE visible
16 Feb ? 06:06:25 10° N 06:10:32 23° WNW 06:14:27 11° WSW visible
17 Feb ? 04:05:01 10° NNE 04:10:06 41° E 04:12:23 27° SSE visible
17 Feb ? 05:45:23 10° N 05:50:06 32° WNW 05:53:45 15° WSW visible
18 Feb ? 03:44:44 10° NE 03:49:18 28° E 03:51:41 20° SE visible
18 Feb ? 05:24:29 10° N 05:29:36 46° WNW 05:33:04 20° SW visible
19 Feb ? 03:24:42 10° NE 03:28:26 19° E 03:30:59 14° ESE visible
19 Feb ? 05:03:42 10° N 05:09:02 67° WNW 05:12:22 23° SSW visible
20 Feb ? 03:05:18 10° ENE 03:07:31 12° E 03:09:41 10° ESE visible
20 Feb ? 04:43:01 10° NNE 04:48:25 84° ESE 04:51:40 25° SSW visible
20 Feb ? 06:24:30 10° NNW 06:27:52 17° WNW 06:31:14 10° W visible
21 Feb ? 04:22:26 10° NNE 04:27:45 57° E 04:30:59 23° S visible
21 Feb ? 06:03:16 10° N 06:07:29 24° WNW 06:11:41 10° WSW visible
22 Feb ? 04:01:59 10° NNE 04:07:00 39° E 04:10:18 19° SSE visible
22 Feb ? 05:42:16 10° N 05:47:02 34° WNW 05:51:40 11° SW visible
23 Feb ? 03:41:42 10° NE 03:46:12 26° E 03:49:36 15° SE visible
23 Feb ? 05:21:23 10° N 05:26:33 48° WNW 05:30:59 14° SW visible
24 Feb ? 03:21:43 10° NE 03:25:20 18° E 03:28:55 10° SE visible
24 Feb ? 05:00:36 10° N 05:05:58 71° WNW 05:10:17 16° SSW visible
